Location: Brienzwiler
(46.7508°N, 8.1014°E)
Time: 08:03:14
(UTC+00:00)

Cosmos 1743 Rocket - Pass Details

Date: 05 July 2020
Orbit: 605 x 631 km, 82.6° (Epoch: 05 August)

Event Time Altitude Azimuth Distance (km) Brightness Sun altitude
Exits shadow 23:12:35 34° 116° (ESE) 1,006 4.3 -20.4°
Maximum altitude 23:13:20 37° 92° (E) 953 4.4 -20.5°
Drops below altitude 10° 23:17:21 10° 25° (NNE) 1,971 7.0 -20.5°
Sets 23:19:41 0° 17° (NNE) 2,884 8.3 -20.5°
